Temp
7 7 7 7 6 6 7 7 6 8 9 8 8 9 8 8 8 9 9 8 8 7 7 7 6 5 6 4 3 4 3 6 6 7 7 8 8 7 7 7 7 7 7 7 7 7 6 6 5
7 7 7 6 6 6 7 7 7 8 8 8 9 9 9 8 8 8 8 7 7 6 6 6 6 5 5 6 4 3 4 5 6 6 7 8 7 7 7 7 7 7 7 7 6 6 6 5 5
7 7 6 6 6 6 6 7 7 7 8 8 8 8 9 9 8 8 7 7 7 7 7 6 5 3 4 3 4 3 4 5 5 6 6 7 7 7 6 6 6 6 6 6 6 6 6 5 5
7 6 6 6 6 7 7 7 7 7 7 7 7 7 7 7 8 8 7 7 7 6 6 5 4 4 4 3 3 3 4 5 5 5 6 6 6 6 6 6 6 6 6 6 6 6 6 5 5
7 6 6 6 7 7 7 7 7 7 7 7 7 7 7 7 7 7 7 6 6 7 6 6 5 4 4 3 2 2 4 4 4 4 5 6 6 6 6 6 5 5 5 5 5 5 5 5 5
6 6 7 7 7 7 7 7 7 7 7 7 7 7 6 6 6 6 6 6 6 5 6 6 4 4 4 2 3 2 4 4 3 4 5 5 5 5 5 5 5 5 5 5 5 5 5 5 4
6 6 7 7 7 7 7 7 7 7 7 6 6 6 6 5 5 6 6 5 5 5 5 4 4 4 3 3 2 2 2 3 3 4 4 5 5 5 5 5 5 4 5 5 5 5 4 4 4
6 6 7 7 7 7 7 8 7 7 7 6 6 6 6 5 5 5 4 5 5 4 4 4 4 4 4 4 1 1 3 2 3 4 4 4 4 4 4 4 4 4 4 4 5 5 4 3 4
5 6 7 7 7 7 7 7 7 7 6 6 6 6 6 5 5 4 4 4 5 5 5 4 4 3 3 2 2 3 1 2 3 3 3 4 4 3 4 4 4 4 4 4 4 4 4 3 3
5 6 7 7 7 7 7 7 7 7 6 6 6 6 5 5 4 5 4 4 4 5 5 4 4 3 3 3 1 2 1 2 1 2 3 3 3 3 3 3 3 3 3 4 3 3 3 3 3
6 6 6 7 7 7 6 7 7 7 7 6 6 6 5 5 4 5 4 4 4 4 4 3 3 1 1 2 0 1 0 1 0 2 3 3 3 3 3 3 2 3 3 3 2 2 3 3 3
6 6 6 7 7 7 7 7 7 7 7 7 6 6 5 5 5 4 4 4 4 3 3 3 3 3 1 1 1 1 1 1 0 2 3 2 3 3 3 2 2 3 3 2 2 2 2 2 2
6 6 6 7 7 7 7 7 7 7 7 7 6 5 4 2 3 4 3 3 3 2 2 3 3 3 3 2 2 2 1 -1 1 1 2 2 2 2 2 2 2 2 3 2 2 2 2 2 2
6 6 6 7 7 7 7 7 7 7 7 7 6 5 4 3 3 4 4 4 3 3 3 3 3 3 2 2 2 2 1 1 1 2 2 2 2 2 2 1 1 1 2 2 1 2 2 2 2
6 6 7 7 7 7 7 7 8 7 7 7 6 6 5 4 4 4 4 2 2 3 2 3 3 3 3 2 2 2 2 -0 1 2 1 1 1 1 1 1 1 2 2 2 1 1 1 1 2
6 6 6 7 7 7 7 8 7 7 7 7 6 6 5 5 5 5 5 4 2 2 2 2 3 2 2 1 2 2 -0 -1 -1 0 1 1 1 1 -0 1 1 1 2 1 1 1 1 1 1
6 6 6 7 7 7 7 8 7 8 7 7 6 6 6 5 5 5 5 5 3 2 2 2 2 1 2 1 1 1 0 -0 -2 -1 -0 0 0 -0 -0 1 1 1 2 1 1 1 1 1 1
6 6 6 7 7 7 6 7 7 8 7 7 7 6 6 6 6 6 5 5 5 3 2 2 2 2 1 2 1 1 1 0 -1 -1 -1 -1 -0 -1 -0 0 1 1 1 1 2 2 2 1 1
6 6 6 7 7 7 8 7 8 8 7 7 7 7 6 6 6 6 6 5 5 5 4 4 3 2 2 2 1 1 0 -0 -2 -2 -2 -2 -1 -1 -0 0 1 1 1 1 1 2 2 1 1
5 5 7 7 8 7 8 7 8 8 8 7 6 7 6 6 6 6 6 6 5 5 5 5 4 3 1 1 1 0 0 -1 -1 -2 -2 -1 -2 -1 -0 0 1 1 1 1 1 1 1 1 1
5 5 7 7 7 6 7 8 8 8 8 7 7 7 7 6 6 6 6 5 6 5 5 5 5 5 3 1 1 0 -0 -1 -1 -1 -1 -1 -1 -0 -0 0 1 1 1 1 1 1 1 1 1
5 6 6 6 6 6 7 6 8 8 8 8 7 8 8 7 7 7 6 6 5 5 5 5 5 5 5 4 4 3 2 3 1 0 1 1 -0 -0 -0 0 1 1 1 1 1 1 1 0 1
6 7 6 6 6 6 7 6 7 8 8 8 8 8 8 7 7 7 7 6 5 5 5 5 5 5 5 4 5 5 4 4 4 3 3 2 2 1 1 1 1 1 1 1 1 0 0 0 0
6 6 6 6 6 4 7 7 7 8 8 8 8 8 8 8 7 7 6 6 6 6 5 5 5 5 5 5 5 5 5 4 4 3 3 2 2 1 1 1 2 1 1 1 1 0 0 0 0
5 5 4 4 3 3 7 6 7 7 8 8 8 8 8 8 8 7 6 7 7 6 6 6 5 5 5 5 5 5 4 4 4 3 3 3 3 2 2 2 2 2 1 0 0 -0 0 0 0
5 5 4 3 1 4 7 5 7 8 8 8 8 9 9 8 8 8 7 6 6 6 6 6 6 5 6 5 5 5 5 4 4 4 3 3 3 3 2 1 1 1 -0 1 -0 0 0 -0 -0
6 5 6 6 4 3 6 7 7 7 8 8 8 8 9 8 8 8 7 7 6 6 6 6 6 6 6 5 5 5 5 4 4 4 3 3 3 3 2 2 1 -0 0 -0 0 -0 -0 0 -0
5 6 6 5 3 2 4 5 7 7 8 8 8 8 8 8 8 8 8 7 7 7 6 6 6 6 6 5 5 5 5 4 4 3 3 3 2 1 1 0 1 -0 -0 -0 -0 0 0 0 1
5 5 5 5 6 4 3 5 7 7 8 7 8 8 8 8 8 8 8 7 7 7 7 6 6 6 5 5 5 4 4 3 3 2 1 1 1 1 1 1 0 0 -0 -0 1 1 1 1 1
5 4 5 5 5 6 6 6 7 7 8 7 8 7 8 8 8 8 8 8 7 7 7 6 6 6 6 5 5 5 4 1 1 0 1 1 1 0 1 0 0 1 2 1 1 1 1 1 0
Height
3127 3125 3125 3124 3128 3124 3122 3122 3118 3115 3114 3113 3111 3112 3112 3110 3112 3114 3112 3112 3111 3111 3114 3117 3118 3119 3119 3121 3131 3134 3138 3141 3141 3140 3141 3143 3143 3144 3145 3147 3149 3150 3152 3154 3155 3157 3158 3159 3159
3126 3125 3125 3123 3126 3124 3122 3120 3117 3115 3114 3112 3110 3109 3109 3108 3108 3110 3109 3108 3109 3111 3113 3117 3116 3118 3119 3121 3124 3131 3134 3138 3140 3141 3142 3142 3143 3144 3145 3147 3149 3150 3151 3153 3154 3157 3158 3159 3159
3124 3125 3125 3124 3124 3124 3121 3118 3117 3116 3114 3112 3109 3108 3106 3106 3106 3107 3105 3105 3107 3109 3110 3111 3114 3116 3117 3114 3122 3129 3132 3135 3139 3140 3141 3139 3142 3143 3145 3146 3147 3149 3150 3152 3155 3157 3157 3158 3159
3125 3125 3126 3124 3123 3122 3120 3118 3116 3115 3114 3111 3109 3106 3104 3103 3104 3104 3104 3104 3105 3106 3107 3108 3110 3111 3110 3114 3113 3128 3131 3133 3136 3138 3139 3139 3141 3143 3145 3146 3147 3148 3150 3152 3155 3156 3156 3157 3158
3124 3123 3124 3122 3120 3119 3118 3118 3117 3114 3113 3110 3107 3104 3101 3100 3100 3100 3099 3098 3099 3102 3104 3105 3105 3103 3105 3106 3107 3123 3127 3131 3134 3137 3139 3139 3141 3143 3144 3145 3147 3149 3150 3152 3155 3157 3157 3157 3159
3123 3123 3123 3122 3119 3118 3118 3116 3115 3113 3110 3106 3103 3100 3098 3096 3095 3097 3094 3093 3096 3097 3098 3099 3099 3100 3104 3107 3111 3120 3124 3129 3134 3137 3138 3139 3141 3143 3145 3145 3147 3148 3150 3151 3154 3157 3158 3158 3160
3122 3122 3122 3120 3119 3117 3116 3114 3112 3110 3107 3104 3101 3097 3094 3092 3091 3091 3091 3093 3094 3094 3094 3095 3097 3096 3101 3105 3107 3106 3120 3127 3133 3136 3138 3140 3140 3142 3144 3145 3147 3149 3149 3151 3155 3157 3159 3159 3160
3120 3121 3120 3119 3118 3116 3114 3112 3110 3108 3105 3101 3097 3093 3090 3088 3087 3087 3088 3090 3092 3092 3095 3094 3097 3097 3098 3102 3102 3109 3115 3124 3133 3134 3137 3139 3140 3143 3145 3145 3147 3148 3149 3150 3156 3158 3158 3160 3160
3119 3119 3117 3116 3116 3115 3113 3110 3108 3106 3103 3099 3095 3091 3087 3085 3085 3085 3087 3088 3090 3089 3092 3093 3094 3091 3091 3093 3102 3105 3113 3123 3131 3133 3135 3137 3139 3140 3143 3145 3148 3148 3150 3149 3151 3157 3158 3161 3162
3117 3117 3115 3115 3114 3114 3112 3109 3106 3104 3100 3097 3093 3089 3085 3083 3083 3084 3085 3086 3086 3086 3090 3091 3091 3082 3079 3088 3098 3103 3117 3123 3126 3130 3135 3136 3139 3140 3141 3145 3149 3150 3151 3153 3152 3156 3158 3160 3161
3115 3114 3114 3111 3112 3110 3108 3107 3104 3101 3098 3094 3092 3087 3083 3081 3081 3081 3083 3084 3086 3086 3087 3088 3087 3089 3087 3088 3093 3099 3109 3114 3124 3129 3132 3135 3138 3139 3143 3147 3151 3151 3153 3155 3155 3157 3158 3160 3161
3113 3112 3111 3110 3110 3108 3106 3105 3102 3098 3096 3093 3090 3084 3082 3079 3078 3080 3081 3082 3084 3086 3086 3086 3087 3090 3091 3092 3099 3104 3108 3113 3124 3127 3130 3133 3138 3141 3144 3146 3150 3151 3153 3155 3156 3156 3160 3161 3161
3109 3109 3109 3108 3108 3106 3105 3103 3101 3097 3094 3091 3087 3084 3077 3074 3075 3076 3079 3080 3082 3084 3087 3088 3091 3092 3091 3093 3098 3104 3107 3115 3120 3126 3129 3133 3138 3141 3144 3147 3150 3151 3154 3155 3155 3157 3159 3162 3163
3106 3106 3106 3106 3106 3105 3103 3101 3099 3095 3092 3089 3087 3082 3078 3076 3075 3078 3077 3076 3078 3081 3084 3087 3089 3091 3094 3096 3099 3103 3110 3115 3121 3125 3129 3133 3138 3141 3143 3146 3149 3152 3154 3154 3154 3156 3159 3161 3162
3105 3104 3103 3105 3104 3104 3102 3098 3095 3093 3090 3088 3086 3082 3079 3078 3077 3075 3074 3075 3075 3075 3080 3084 3087 3089 3091 3094 3101 3106 3111 3115 3121 3124 3128 3131 3136 3139 3142 3146 3149 3152 3153 3153 3155 3156 3158 3160 3161
3102 3102 3101 3101 3102 3102 3100 3094 3094 3092 3089 3087 3086 3084 3080 3079 3078 3076 3073 3073 3073 3075 3077 3083 3086 3091 3093 3097 3099 3106 3106 3111 3118 3122 3127 3129 3133 3139 3142 3145 3148 3151 3153 3153 3155 3156 3157 3159 3158
3099 3098 3098 3098 3100 3097 3096 3092 3092 3090 3088 3085 3085 3084 3083 3080 3077 3077 3074 3073 3073 3074 3076 3081 3086 3088 3090 3095 3098 3101 3106 3109 3116 3119 3124 3127 3131 3136 3141 3144 3147 3150 3151 3152 3154 3155 3156 3158 3158
3093 3095 3096 3096 3097 3096 3094 3091 3091 3088 3087 3085 3084 3083 3082 3082 3080 3078 3077 3076 3075 3074 3075 3079 3082 3086 3088 3091 3095 3098 3101 3106 3112 3116 3121 3126 3130 3134 3139 3142 3145 3148 3149 3150 3152 3153 3154 3157 3157
3091 3092 3093 3093 3093 3092 3088 3089 3090 3088 3086 3084 3083 3082 3081 3081 3082 3080 3078 3078 3077 3077 3075 3075 3078 3083 3086 3088 3091 3094 3100 3103 3109 3113 3117 3121 3127 3132 3135 3138 3141 3146 3147 3148 3149 3149 3152 3155 3155
3088 3088 3089 3089 3090 3089 3086 3085 3086 3085 3084 3083 3082 3082 3081 3080 3081 3082 3081 3079 3079 3079 3078 3078 3077 3080 3082 3085 3090 3093 3098 3102 3107 3112 3114 3120 3124 3129 3134 3137 3139 3142 3144 3144 3145 3147 3150 3151 3151
3083 3084 3085 3087 3085 3085 3084 3084 3083 3082 3081 3079 3079 3079 3079 3079 3079 3080 3082 3081 3081 3081 3081 3081 3082 3080 3081 3085 3088 3092 3097 3101 3104 3107 3110 3116 3120 3125 3131 3135 3137 3139 3139 3141 3142 3145 3147 3147 3146
3078 3082 3083 3083 3083 3081 3080 3080 3079 3079 3078 3076 3076 3076 3078 3079 3078 3078 3080 3081 3083 3083 3083 3084 3084 3085 3085 3085 3089 3092 3095 3098 3101 3105 3109 3114 3118 3123 3128 3132 3134 3136 3137 3137 3139 3140 3142 3142 3142
3074 3078 3080 3079 3077 3077 3075 3076 3074 3075 3074 3073 3073 3074 3076 3077 3077 3077 3079 3081 3083 3084 3085 3086 3086 3088 3090 3091 3092 3095 3097 3102 3105 3108 3110 3113 3116 3120 3124 3127 3130 3131 3132 3133 3135 3135 3136 3136 3136
3074 3074 3074 3074 3073 3071 3070 3070 3068 3070 3071 3071 3070 3071 3072 3075 3076 3077 3077 3078 3081 3082 3084 3085 3087 3089 3090 3093 3093 3097 3101 3102 3104 3106 3109 3111 3114 3116 3120 3124 3125 3127 3127 3128 3129 3130 3130 3130 3130
3067 3070 3072 3070 3067 3063 3066 3065 3062 3064 3065 3066 3067 3068 3069 3071 3073 3074 3075 3076 3079 3080 3082 3084 3086 3089 3090 3091 3093 3097 3099 3102 3103 3106 3107 3107 3110 3116 3120 3122 3121 3122 3123 3121 3121 3122 3122 3124 3123
3060 3064 3066 3066 3065 3061 3061 3057 3057 3059 3061 3061 3061 3062 3064 3067 3069 3071 3072 3075 3077 3079 3081 3082 3084 3087 3088 3090 3092 3096 3098 3098 3100 3102 3104 3107 3110 3113 3114 3114 3114 3115 3113 3112 3112 3111 3113 3113 3115
3054 3056 3062 3060 3058 3059 3055 3052 3053 3055 3056 3056 3056 3056 3058 3060 3063 3067 3069 3071 3073 3076 3078 3080 3082 3085 3086 3088 3092 3093 3095 3097 3099 3100 3101 3101 3104 3105 3106 3107 3105 3105 3098 3101 3103 3104 3106 3107 3108
3050 3056 3057 3056 3059 3058 3048 3046 3046 3049 3051 3052 3052 3052 3054 3056 3058 3061 3065 3068 3070 3072 3074 3076 3079 3081 3084 3085 3086 3088 3090 3091 3092 3093 3094 3094 3095 3097 3099 3098 3098 3096 3088 3094 3097 3100 3101 3101 3100
3048 3047 3050 3053 3052 3049 3048 3040 3041 3043 3045 3046 3047 3049 3052 3052 3055 3056 3059 3063 3066 3068 3070 3072 3075 3075 3076 3078 3078 3078 3081 3082 3082 3084 3085 3087 3087 3088 3089 3088 3087 3087 3083 3086 3089 3091 3093 3094 3092
3042 3043 3046 3044 3045 3042 3039 3029 3039 3040 3043 3043 3045 3046 3048 3050 3051 3053 3055 3058 3060 3063 3064 3065 3068 3069 3071 3071 3071 3070 3070 3072 3074 3074 3072 3075 3075 3073 3073 3072 3068 3077 3079 3080 3082 3084 3085 3086 3085
Wind_Speed
9 7 5 4 3 3 7 8 21 9 4 5 6 13 12 9 2 6 15 15 14 12 13 14 21 17 23 27 35 35 31 23 24 22 19 15 15 14 13 13 12 12 11 10 9 9 10 9 8
6 5 4 3 3 4 12 13 16 4 4 4 7 9 15 14 12 7 11 11 10 10 10 16 24 18 17 23 36 35 29 26 24 23 22 18 16 15 14 15 14 13 12 11 10 10 9 8 6
4 3 1 3 4 9 16 15 13 12 7 6 9 13 16 16 14 17 11 14 12 11 13 18 24 26 22 37 38 31 28 27 27 25 23 19 19 17 17 17 16 14 12 10 9 10 9 9 9
5 6 3 4 10 14 11 15 14 11 14 13 16 17 15 13 15 14 12 13 14 11 10 20 25 31 24 20 36 33 30 31 28 27 25 23 21 20 18 16 14 13 11 9 9 10 9 9 10
4 5 3 8 13 11 1 6 11 13 14 18 20 19 18 15 16 17 17 16 12 13 15 13 17 18 21 16 36 35 39 29 30 30 27 24 22 21 20 17 15 13 11 9 9 9 9 13 14
8 6 4 6 6 4 3 4 11 15 18 22 19 15 17 20 16 15 13 12 11 11 13 14 15 12 22 23 40 35 37 32 32 30 28 26 24 22 20 18 16 13 10 8 8 9 11 15 14
8 7 2 3 4 5 4 12 16 19 19 18 15 18 15 15 17 16 19 12 11 11 13 16 20 26 21 22 32 39 32 32 32 30 29 27 25 24 22 19 17 13 10 8 9 10 12 16 14
7 8 7 5 9 7 7 16 18 19 20 25 18 14 15 13 15 14 12 12 8 8 12 15 20 27 28 25 34 38 42 32 31 31 29 28 27 25 23 21 18 15 11 6 6 11 13 17 14
9 9 5 4 8 11 11 15 21 20 19 21 18 13 14 13 10 7 9 9 10 7 10 13 12 26 32 32 35 39 32 36 35 33 33 31 30 28 25 22 20 17 13 9 8 8 11 16 13
10 10 4 11 15 16 17 18 21 20 21 24 18 16 15 12 10 7 7 8 9 10 18 11 5 32 50 47 44 40 39 43 40 33 32 31 30 29 26 23 19 15 10 7 9 10 10 11 9
9 11 14 9 12 17 18 21 23 23 21 22 21 14 14 9 9 11 7 8 8 14 15 12 6 7 28 40 42 38 46 38 35 38 35 33 32 29 24 20 16 15 11 9 11 10 10 10 7
10 10 13 10 11 11 16 19 24 22 23 25 21 15 16 14 14 12 12 11 10 17 16 12 5 6 14 14 28 33 37 40 38 34 35 34 31 26 24 19 20 15 9 9 11 10 10 7 6
12 12 9 10 13 15 19 18 24 26 23 28 22 16 18 6 15 14 11 12 12 11 13 15 11 11 12 19 16 23 35 38 25 38 36 34 30 27 22 20 20 15 13 7 9 9 8 6 7
16 15 12 10 12 17 23 23 26 26 26 25 17 16 14 8 5 5 12 12 14 15 14 16 15 16 16 20 20 21 36 32 37 39 37 32 29 27 23 21 18 16 14 9 9 10 10 8 9
18 19 18 14 17 20 20 28 24 23 23 22 18 14 12 9 6 3 4 12 17 20 16 15 15 17 23 23 19 22 38 36 39 39 37 33 33 27 25 22 17 21 14 9 7 10 10 10 9
13 16 20 14 13 13 16 25 19 21 20 20 13 9 8 9 9 8 4 1 10 20 21 14 17 19 17 14 23 24 40 42 40 39 38 37 35 28 28 25 21 24 13 9 9 10 11 10 7
18 19 17 12 9 15 20 22 18 20 18 19 14 6 3 5 9 8 9 6 2 8 13 18 16 23 25 14 12 19 36 40 42 44 41 40 35 32 31 26 24 24 15 11 11 10 12 10 9
17 20 16 14 6 12 19 19 18 17 18 16 14 5 6 4 6 6 6 8 8 1 12 23 16 19 24 16 17 23 39 40 46 41 43 39 36 34 34 28 28 22 15 13 12 11 11 12 15
15 13 15 15 9 20 16 26 18 18 18 16 11 4 7 9 5 5 5 5 7 7 3 5 17 23 23 23 19 23 28 35 45 43 44 38 36 38 32 31 30 22 18 15 14 13 13 14 16
21 20 19 15 5 20 10 17 16 17 14 14 13 6 4 7 6 4 3 3 4 4 5 5 7 11 21 22 24 24 30 30 36 45 45 39 40 39 37 33 32 25 20 16 15 14 14 16 16
23 23 18 16 17 18 17 17 18 15 17 18 14 12 9 9 6 6 6 4 2 1 3 6 7 9 12 21 26 28 29 30 35 35 36 38 33 38 37 35 30 25 20 19 17 17 18 17 18
24 21 18 19 22 20 17 7 19 20 16 16 17 11 10 10 9 7 9 5 4 4 3 4 6 11 15 19 22 23 22 22 26 28 30 35 39 40 37 35 30 27 24 21 20 21 21 19 17
23 16 20 22 24 21 13 7 11 13 12 15 17 14 13 10 9 7 5 8 9 9 7 7 7 9 10 14 18 17 18 18 22 25 26 29 30 33 33 31 32 29 27 24 26 26 23 22 23
19 19 20 23 20 9 21 18 16 20 20 20 15 15 15 14 13 11 9 12 15 14 13 12 10 10 10 10 11 11 13 15 17 18 20 22 22 25 27 30 28 28 27 29 30 29 27 27 26
21 19 4 6 5 7 16 14 20 16 14 14 15 17 17 16 14 15 17 14 17 19 16 15 14 12 11 12 13 13 14 17 17 19 19 20 20 24 27 28 30 32 31 34 36 34 30 26 27
25 27 13 6 3 6 15 8 6 5 13 14 17 19 22 19 19 16 15 16 17 18 20 19 18 17 17 16 16 17 18 18 18 21 24 27 29 29 30 32 33 34 38 43 36 32 29 27 23
31 33 25 26 17 5 12 14 19 20 19 16 20 14 21 16 21 15 10 16 18 20 18 20 21 21 21 20 20 20 21 22 23 26 30 30 30 28 30 33 35 32 45 31 27 28 25 23 28
35 19 11 12 4 5 5 9 14 10 17 20 14 19 18 19 17 15 14 15 14 14 18 19 20 22 22 25 27 28 28 26 25 29 31 32 33 33 34 37 38 38 42 27 19 26 27 28 31
21 31 30 27 23 8 8 11 22 20 11 12 13 14 20 19 17 17 15 15 17 20 22 21 21 20 24 26 27 28 22 26 31 29 38 37 37 35 35 42 40 38 25 19 27 31 32 34 36
23 18 28 27 14 13 21 26 14 6 8 8 12 15 23 24 22 22 16 15 17 21 26 28 27 27 26 27 28 30 30 32 21 31 31 35 36 35 23 29 36 12 17 26 25 29 32 35 38
Wind_Direction
321 329 325 298 302 314 322 360 340 14 38 352 354 330 337 310 253 207 255 261 253 229 224 233 225 237 245 209 190 193 208 205 194 185 180 181 182 172 165 163 169 172 172 170 162 133 109 109 117
325 319 287 291 301 314 353 335 352 354 331 344 313 304 303 309 311 258 243 213 217 229 230 216 228 237 246 238 192 205 221 198 188 182 180 178 170 165 165 168 170 168 170 170 151 124 120 133 144
310 288 252 269 291 319 328 350 327 328 301 300 289 286 281 285 287 291 251 252 252 251 252 229 221 228 251 240 199 194 187 191 184 178 173 169 167 168 172 170 167 165 163 165 142 126 141 146 153
245 238 273 280 315 336 351 15 356 308 319 321 323 311 293 286 285 275 264 261 257 243 235 226 231 246 239 225 196 191 190 188 178 172 170 168 170 173 171 169 167 163 166 166 138 136 143 142 137
240 225 263 325 346 4 97 360 349 355 338 328 320 312 290 293 296 272 264 271 270 264 230 226 239 228 221 205 201 185 199 183 175 173 170 170 173 172 173 168 164 164 172 165 144 140 140 135 138
236 236 259 352 23 31 322 344 332 331 327 324 320 325 301 281 282 280 266 252 264 244 247 241 218 209 211 224 205 173 178 179 174 172 172 173 173 170 169 169 168 169 174 170 149 143 136 131 133
201 219 255 324 3 359 351 345 334 326 325 328 317 316 311 290 268 259 266 254 238 238 245 239 223 233 233 186 192 178 180 180 176 174 173 174 172 171 171 170 170 166 174 175 150 149 138 131 136
203 231 227 319 331 306 313 336 328 320 324 323 326 319 313 307 279 273 238 227 219 219 221 226 206 206 247 235 192 176 183 174 178 176 175 175 172 174 173 172 165 163 165 163 155 151 142 133 143
211 243 252 303 346 320 304 323 328 328 329 335 332 324 316 299 288 221 209 207 211 217 259 232 256 252 227 200 215 180 170 176 179 178 176 178 179 175 176 174 167 160 155 161 175 157 152 142 140
218 246 239 308 307 307 288 310 321 329 326 338 325 315 315 293 245 226 230 234 241 224 221 231 348 236 224 219 182 166 175 177 181 179 182 184 182 181 177 170 161 150 144 197 171 164 158 145 143
229 254 299 273 299 294 265 295 317 323 329 333 328 318 324 320 254 244 237 223 211 208 217 197 38 135 163 181 190 173 178 179 175 183 187 187 188 185 179 173 163 150 154 187 176 175 170 161 143
266 266 316 270 301 276 282 289 312 314 327 334 336 333 325 297 247 230 223 209 204 205 209 210 197 279 148 175 165 178 180 176 178 188 192 192 193 184 181 174 164 155 169 161 174 178 185 176 160
258 264 286 283 278 289 290 296 303 302 321 335 331 335 350 311 227 233 225 226 212 212 199 199 192 205 155 183 182 191 183 172 202 191 194 198 194 189 179 183 177 170 203 182 178 187 194 184 180
249 253 267 265 282 286 293 294 297 297 313 332 335 349 13 24 58 219 238 227 221 201 217 203 175 186 195 179 194 186 181 193 187 194 199 196 197 193 190 182 172 189 223 203 183 196 202 195 194
260 261 255 251 262 278 283 284 289 294 311 327 338 353 20 32 14 336 259 220 225 226 198 201 193 216 218 168 193 201 194 194 195 199 199 194 198 197 202 188 188 203 219 215 209 206 211 221 207
256 257 263 247 252 277 285 281 286 303 311 323 345 349 8 15 16 18 19 188 219 213 220 187 213 205 184 211 189 205 211 198 198 202 205 200 197 203 208 202 206 215 224 224 229 214 221 230 239
239 253 258 257 288 280 269 276 290 296 308 315 315 319 321 355 360 13 22 17 110 181 225 198 203 199 204 225 244 210 204 205 199 204 206 204 201 206 204 200 227 221 228 227 233 222 226 237 246
231 240 257 261 303 319 274 269 293 293 298 300 310 285 264 272 330 343 33 31 23 131 179 218 217 211 196 215 197 206 211 203 201 209 202 206 209 220 206 216 219 225 233 231 229 221 223 235 243
238 237 257 257 303 309 276 259 285 291 283 277 305 278 244 253 284 302 350 34 31 24 60 166 203 215 225 224 217 212 205 207 205 208 204 201 215 210 215 217 217 231 231 226 223 219 227 236 248
251 253 252 273 293 321 261 264 278 285 291 273 280 274 223 261 258 230 267 345 16 39 67 94 144 196 197 201 197 200 207 205 215 215 224 211 208 214 216 222 215 228 223 226 229 236 239 246 261
246 250 250 269 296 312 250 259 265 277 291 265 261 264 236 217 222 237 233 230 144 80 101 128 129 125 169 195 198 196 197 200 209 218 211 208 219 207 215 217 224 231 226 229 235 241 248 257 267
249 232 256 279 290 277 250 250 261 269 281 273 254 259 255 230 219 218 227 208 194 197 154 160 166 155 153 161 170 176 181 181 192 200 199 202 202 205 217 219 233 233 236 234 241 247 250 257 277
228 229 268 287 278 260 233 232 243 251 259 278 273 256 244 226 207 206 225 217 211 208 197 189 183 180 174 168 169 169 172 173 181 187 189 192 195 201 213 227 232 237 240 239 243 248 258 264 266
236 261 280 284 257 234 247 251 254 257 267 274 276 273 254 235 217 192 190 218 219 220 211 213 204 193 186 193 186 188 187 189 192 193 198 202 209 215 223 227 231 238 242 247 249 256 259 266 270
231 242 279 265 220 233 260 248 260 262 255 263 270 264 246 247 230 216 205 224 224 225 223 222 225 220 207 203 203 201 203 212 213 214 219 221 223 228 234 240 243 244 248 254 256 254 256 263 270
228 233 214 228 215 255 254 230 249 266 240 277 284 249 248 248 250 238 225 225 234 238 231 233 231 230 232 228 223 222 218 220 223 226 228 229 229 234 238 243 249 257 255 252 247 257 253 247 257
235 243 242 256 271 275 248 251 257 262 269 273 261 260 234 246 227 227 235 227 235 239 245 244 242 238 238 244 244 240 237 235 234 230 231 234 236 239 245 246 248 249 255 255 258 249 249 257 261
232 228 236 229 197 259 249 241 235 254 267 275 268 252 234 241 220 228 234 232 224 238 251 249 249 250 250 250 249 249 246 246 252 254 248 243 242 244 249 256 255 254 268 248 259 258 257 257 263
231 237 246 255 251 241 263 260 265 271 269 273 262 261 236 218 222 226 236 240 243 246 247 252 250 252 252 256 258 253 246 252 254 260 262 260 256 256 259 258 255 266 250 235 244 245 252 259 264
256 255 247 233 241 249 249 248 233 248 251 278 270 255 232 229 237 237 239 248 250 252 252 254 256 258 265 269 275 280 274 246 252 260 287 256 267 263 281 281 259 262 232 231 244 255 262 266 268